User: anonymous   Login
Location: Kelshall
(52.0000°N, 0.0500°W)
Time: 02:20:42
(UTC+00:00)
Language:

Ariane Rocket - Orbit

View from above orbital plane
View from above orbital plane
View from above satellite
View from above satellite

Ground track
Ground track

The orbit data is extracted from the following two-line orbital elements,

1 23561U 95021B   20334.87092781  .00000087  00000-0  43887-4 0  9997
2 23561  98.7045  16.4338 0007914 120.3186  52.6098 14.37995284342561
Epoch (UTC): 29 November 2020 20:54:08
Eccentricity: 0.0007914
inclination: 98.7045°
perigee height: 759 km
apogee height: 771 km
right ascension of ascending node: 16.4338°
argument of perigee: 120.3186°
revolutions per day: 14.37995284
mean anomaly at epoch: 52.6098°
orbit number at epoch: 34256

The dashed part of the orbit path shows where the satellite is in the earth's shadow,  

DLR